Simultaneous Nadir Overpasses (SNOs) Predictions

Prediction of SNOs between AQUA and METOP-B Satellite Orbit:

Table of predicted SNOs for the next 14.0 days since TLE Epoch: 6/15/2018
Index Date (AQUA) Time (AQUA) Lat,Lon (AQUA) SZA (AQUA ) Date (METOP-B) Time (METOP-B) Lat,Lon (METOP-B) SZA (METOP-B ) Distance(km) Time Diff (sec)
1 06/16/2018 15:12:42 -73.91, 126.01 129.43 06/16/2018 15:11:30 -73.89, 126.04 129.45 2.84 72
2 06/16/2018 16:02:10 73.94, -66.42 50.60 06/16/2018 16:02:08 73.98, -66.42 50.64 3.76 2
3 06/16/2018 16:51:37 -74.02, 101.06 129.33 06/16/2018 16:52:49 -74.02, 101.00 129.33 1.88 72
4 06/19/2018 10:46:56 -73.91,-167.54 129.50 06/19/2018 10:45:50 -73.90,-167.53 129.50 0.70 66
5 06/19/2018 11:36:25 74.00, -0.10 50.60 06/19/2018 11:36:28 73.99, 0.01 50.59 3.54 3
6 06/19/2018 12:25:54 -74.16, 167.16 129.23 06/19/2018 12:27:06 -74.17, 167.79 129.25 19.14 72
7 06/22/2018 06:21:10 -73.90,-101.09 129.51 06/22/2018 06:20:10 -73.91,-101.11 129.49 0.73 60
8 06/22/2018 07:10:39 74.00, 66.33 50.60 06/22/2018 07:10:48 73.99, 66.44 50.59 3.47 9
9 06/22/2018 08:00:13 -74.42,-126.99 128.96 06/22/2018 08:01:22 -74.38,-125.28 129.06 51.34 69
10 06/25/2018 01:55:23 -73.91, -34.66 129.46 06/25/2018 01:54:29 -73.91, -34.69 129.44 1.21 54
11 06/25/2018 02:44:52 74.01, 132.74 50.66 06/25/2018 02:45:07 74.00, 132.86 50.64 3.87 15
12 06/25/2018 03:34:30 -74.62, -61.06 128.68 06/25/2018 03:35:36 -74.62, -58.22 128.79 83.52 66
13 06/27/2018 21:29:37 -73.92, 31.77 129.34 06/27/2018 21:28:49 -73.92, 31.73 129.33 1.18 48
14 06/27/2018 22:19:05 73.98,-160.74 50.73 06/27/2018 22:19:27 74.00,-160.73 50.75 2.60 22




NCC Satellite Simultaneous Nadir Overpasses (SNOs) Prediction Service
